EW1107 Weather Reports


Display with metric or nautical units.
time (UTC)temp
F
wind
direction
speed
MPH
gust
MPH
rain 1hr
in
rain 24hr
in
rain mn
in
humidity
%
barometer
mb
20260904061559 64 273 6.0 18.0 0.00 0.00 0.00 86 1012.4
20260904061050 63 264 6.0 18.0 0.00 0.00 0.00 87 1012.3
20260904060550 63 252 8.0 17.0 0.00 0.00 0.00 87 1012.3
20260904060109 63 242 8.0 19.0 0.00 0.00 0.00 87 1012.1
20260904055550 63 225 9.0 19.0 0.00 0.00 0.00 87 1012.2
20260904055047 63 207 8.0 16.0 0.00 0.00 0.00 87 1012.1
20260904054546 63 222 8.0 12.0 0.00 0.00 0.00 87 1012.2
20260904054045 63 241 3.0 15.0 0.00 0.00 0.00 87 1012.2
20260904053543 63 270 5.0 12.0 0.00 0.00 0.00 87 1012.1
20260904053042 63 218 5.0 14.0 0.00 0.00 0.00 87 1012.2
20260904052540 63 249 4.0 15.0 0.00 0.00 0.00 88 1012.2
20260904052039 63 217 6.0 21.0 0.00 0.00 0.00 88 1012.3
20260904051538 63 234 11.0 21.0 0.00 0.00 0.00 88 1012.3
20260904051037 63 259 6.0 14.0 0.00 0.00 0.00 88 1012.3
20260904050537 63 243 4.0 17.0 0.00 0.00 0.00 88 1012.3
20260904050036 63 229 5.0 17.0 0.00 0.00 0.00 88 1012.4
20260904045035 63 224 7.0 15.0 0.00 0.00 0.00 88 1012.4
20260904044542 63 279 5.0 18.0 0.00 0.00 0.00 87 1012.3
20260904044031 63 233 4.0 19.0 0.00 0.00 0.00 87 1012.3
20260904043530 63 257 7.0 20.0 0.00 0.00 0.00 87 1012.4
20260904043029 63 207 2.0 20.0 0.00 0.00 0.00 87 1012.5
20260904042529 63 259 5.0 15.0 0.00 0.00 0.00 87 1012.6
20260904042028 63 254 9.0 19.0 0.00 0.00 0.00 87 1012.6
20260904041526 63 226 8.0 21.0 0.00 0.00 0.00 86 1012.5
20260904041030 63 243 5.0 15.0 0.00 0.00 0.00 86 1012.5
20260904040525 63 255 8.0 17.0 0.00 0.00 0.00 86 1012.5
20260904040026 63 261 4.0 23.0 0.00 0.00 0.00 86 1012.6
20260904035525 63 249 7.0 23.0 0.00 0.00 0.00 86 1012.6
20260904035025 62 229 6.0 20.0 0.00 0.00 0.00 87 1012.5
20260904034524 62 253 6.0 12.0 0.00 0.00 0.00 87 1012.5
20260904034022 62 253 7.0 12.0 0.00 0.00 0.00 87 1012.5
20260904033522 62 286 5.0 12.0 0.00 0.00 0.00 87 1012.6
20260904033021 62 216 5.0 13.0 0.00 0.00 0.00 87 1012.5
20260904032522 62 260 7.0 13.0 0.00 0.00 0.00 87 1012.5
20260904032021 62 228 5.0 14.0 0.00 0.00 0.00 86 1012.5
20260904031519 62 223 4.0 14.0 0.00 0.00 0.00 86 1012.6
20260904031020 62 215 4.0 11.0 0.00 0.00 0.00 86 1012.5
20260904030519 62 241 3.0 15.0 0.00 0.00 0.00 86 1012.6
20260904030019 62 257 6.0 15.0 0.00 0.00 0.00 86 1012.5
20260904025517 62 214 6.0 17.0 0.00 0.00 0.00 85 1012.7
20260904025018 62 242 7.0 17.0 0.00 0.00 0.00 85 1012.6
20260904024517 62 241 6.0 15.0 0.00 0.00 0.00 85 1012.7
20260904024015 62 213 5.0 15.0 0.00 0.00 0.00 85 1012.7
20260904023515 62 238 2.0 11.0 0.00 0.00 0.00 84 1012.7
20260904023015 62 227 2.0 15.0 0.00 0.00 0.00 84 1012.7
20260904022516 63 227 5.0 14.0 0.00 0.00 0.00 84 1012.6
20260904022015 63 257 2.0 14.0 0.00 0.00 0.00 84 1012.7
20260904021518 63 277 4.0 12.0 0.00 0.00 0.00 84 1012.6
20260904021014 63 261 7.0 13.0 0.00 0.00 0.00 83 1012.5
20260904020511 63 261 8.0 20.0 0.00 0.00 0.00 83 1012.6
20260904020010 63 250 4.0 15.0 0.00 0.00 0.00 83 1012.6
20260904015509 63 284 7.0 15.0 0.00 0.00 0.00 83 1012.6
20260904015110 63 268 5.0 13.0 0.00 0.00 0.00 82 1012.7
20260904014517 63 257 5.0 18.0 0.00 0.00 0.00 82 1012.7
20260904014008 63 280 4.0 18.0 0.00 0.00 0.00 82 1012.7
20260904013507 63 272 6.0 16.0 0.00 0.00 0.00 82 1012.8
20260904013008 63 254 5.0 21.0 0.00 0.00 0.00 82 1012.8
20260904012507 63 217 8.0 21.0 0.00 0.00 0.00 81 1012.8
20260904012007 63 264 6.0 17.0 0.00 0.00 0.00 81 1012.8
20260904011511 63 237 6.0 16.0 0.00 0.00 0.00 81 1012.8
20260904011004 63 251 6.0 16.0 0.00 0.00 0.00 80 1012.8
20260904010503 63 252 6.0 14.0 0.00 0.00 0.00 80 1012.8
20260904010004 63 225 7.0 12.0 0.00 0.00 0.00 80 1012.8
20260904005503 63 239 4.0 10.0 0.00 0.00 0.00 80 1012.9
20260904005002 63 259 5.0 13.0 0.00 0.00 0.00 80 1012.9
20260904004502 63 234 6.0 13.0 0.00 0.00 0.00 80 1013.0
20260904004001 63 257 2.0 11.0 0.00 0.00 0.00 80 1013.0
20260904003600 63 202 4.0 11.0 0.00 0.00 0.00 80 1013.0
20260904003059 63 223 4.0 10.0 0.00 0.00 0.00 79 1013.1
20260904002559 63 221 3.0 6.0 0.00 0.00 0.00 79 1013.0
20260904002102 63 246 3.0 8.0 0.00 0.00 0.00 79 1013.1
20260904001601 63 228 3.0 11.0 0.00 0.00 0.00 79 1013.1
20260904001057 64 236 1.0 11.0 0.00 0.00 0.00 78 1013.1
20260904000558 64 240 4.0 11.0 0.00 0.00 0.00 78 1013.1
20260904000131 64 247 3.0 10.0 0.00 0.00 0.00 78 1013.2
20260903235655 64 261 4.0 13.0 0.00 0.00 0.00 78 1013.3
20260903235056 64 232 5.0 13.0 0.00 0.00 0.00 77 1013.3
20260903234553 64 243 5.0 19.0 0.00 0.00 0.00 77 1013.3
20260903234053 64 254 7.0 19.0 0.00 0.00 0.00 77 1013.3
20260903233552 64 233 2.0 11.0 0.00 0.00 0.00 76 1013.4
20260903233051 65 293 2.0 11.0 0.00 0.00 0.00 76 1013.3
20260903232551 65 250 4.0 11.0 0.00 0.00 0.00 75 1013.3
20260903232050 65 228 3.0 13.0 0.00 0.00 0.00 75 1013.4
20260903231549 65 236 3.0 13.0 0.00 0.00 0.00 74 1013.4
20260903231048 65 228 5.0 13.0 0.00 0.00 0.00 74 1013.6
20260903230548 65 273 5.0 13.0 0.00 0.00 0.00 74 1013.6
20260903230049 65 242 7.0 15.0 0.00 0.00 0.00 73 1013.6
20260903225547 65 239 3.0 15.0 0.00 0.00 0.00 73 1013.7
20260903225046 65 260 4.0 17.0 0.00 0.00 0.00 73 1013.6
20260903224550 65 238 6.0 17.0 0.00 0.00 0.00 73 1013.6
20260903224046 65 227 4.0 10.0 0.00 0.00 0.00 73 1013.6
20260903223546 65 239 5.0 10.0 0.00 0.00 0.00 73 1013.6
20260903223046 65 220 2.0 13.0 0.00 0.00 0.00 73 1013.7
20260903222545 65 245 4.0 17.0 0.00 0.00 0.00 73 1013.7
20260903222044 65 273 6.0 12.0 0.00 0.00 0.00 72 1013.6
20260903221544 65 220 6.0 12.0 0.00 0.00 0.00 72 1013.5
20260903221043 65 209 5.0 12.0 0.00 0.00 0.00 72 1013.5
20260903220542 65 212 4.0 15.0 0.00 0.00 0.00 72 1013.5
20260903220051 65 203 8.0 15.0 0.00 0.00 0.00 72 1013.5
20260903215540 65 227 5.0 12.0 0.00 0.00 0.00 72 1013.4
20260903215040 65 195 5.0 14.0 0.00 0.00 0.00 72 1013.6
20260903214542 65 216 7.0 12.0 0.00 0.00 0.00 72 1013.6
20260903214141 65 205 4.0 12.0 0.00 0.00 0.00 72 1013.6
20260903213541 65 218 6.0 13.0 0.00 0.00 0.00 72 1013.7
20260903213041 65 194 6.0 13.0 0.00 0.00 0.00 72 1013.7
20260903212538 65 224 6.0 13.0 0.00 0.00 0.00 71 1013.7
20260903212040 65 205 6.0 12.0 0.00 0.00 0.00 71 1013.7
20260903211605 65 190 8.0 14.0 0.00 0.00 0.00 71 1013.8
20260903211039 65 214 8.0 14.0 0.00 0.00 0.00 71 1013.9
20260903210537 65 203 5.0 14.0 0.00 0.00 0.00 71 1013.9
20260903210037 65 213 5.0 10.0 0.00 0.00 0.00 71 1013.9
20260903205536 65 217 4.0 7.0 0.00 0.00 0.00 71 1013.9
20260903205138 65 201 1.0 8.0 0.00 0.00 0.00 71 1013.9
20260903204539 65 207 4.0 9.0 0.00 0.00 0.00 71 1014.0
20260903204033 65 194 4.0 9.0 0.00 0.00 0.00 71 1014.0
20260903203534 65 212 4.0 8.0 0.00 0.00 0.00 71 1014.1
20260903203034 65 221 4.0 8.0 0.00 0.00 0.00 71 1014.1
20260903202535 65 197 4.0 10.0 0.00 0.00 0.00 71 1014.0
20260903202033 65 189 3.0 11.0 0.00 0.00 0.00 71 1014.1
20260903201534 65 200 1.0 11.0 0.00 0.00 0.00 72 1014.2
20260903201031 65 171 2.0 9.0 0.00 0.00 0.00 72 1014.3
20260903200532 65 213 4.0 10.0 0.00 0.00 0.00 72 1014.4
20260903200031 65 215 5.0 10.0 0.00 0.00 0.00 72 1014.3
20260903195530 65 206 3.0 8.0 0.00 0.00 0.00 73 1014.3
20260903195030 65 214 1.0 6.0 0.00 0.00 0.00 72 1014.3
20260903194530 65 199 2.0 6.0 0.00 0.00 0.00 72 1014.3
20260903194033 65 200 0.0 6.0 0.00 0.00 0.00 72 1014.3
20260903193029 65 198 1.0 6.0 0.00 0.00 0.00 72 1014.4
20260903192532 65 196 2.0 6.0 0.00 0.00 0.00 71 1014.4
20260903192028 65 193 1.0 6.0 0.00 0.00 0.00 71 1014.5
20260903191528 65 190 0.0 0.0 0.00 0.00 0.00 71 1014.5
20260903191027 66 183 0.0 0.0 0.00 0.00 0.00 70 1014.6
20260903190530 66 192 0.0 0.0 0.00 0.00 0.00 70 1014.7
20260903190027 66 202 0.0 0.0 0.00 0.00 0.00 70 1014.7
20260903185526 66 204 0.0 0.0 0.00 0.00 0.00 70 1014.7
20260903185026 66 209 0.0 0.0 0.00 0.00 0.00 70 1014.8
20260903184526 66 194 0.0 0.0 0.00 0.00 0.00 69 1014.9
20260903184027 66 200 0.0 0.0 0.00 0.00 0.00 69 1014.9
20260903183528 66 213 0.0 0.0 0.00 0.00 0.00 69 1014.9
20260903183026 66 198 0.0 0.0 0.00 0.00 0.00 69 1014.9
20260903182526 66 211 0.0 0.0 0.00 0.00 0.00 68 1014.9
20260903182024 66 211 0.0 0.0 0.00 0.00 0.00 68 1014.9
20260903181524 67 221 0.0 0.0 0.00 0.00 0.00 68 1014.8
20260903181024 67 221 0.0 0.0 0.00 0.00 0.00 68 1014.9
20260903180525 67 221 0.0 0.0 0.00 0.00 0.00 68 1014.9
20260903180025 67 221 0.0 0.0 0.00 0.00 0.00 68 1014.9
20260903175528 67 238 0.0 4.0 0.00 0.00 0.00 68 1014.9
20260903175024 67 245 0.0 10.0 0.00 0.00 0.00 68 1015.0
20260903174538 67 221 4.0 10.0 0.00 0.00 0.00 69 1015.0
20260903174023 67 249 2.0 9.0 0.00 0.00 0.00 69 1015.0
20260903173522 68 231 3.0 9.0 0.00 0.00 0.00 69 1015.0
20260903172524 68 218 1.0 12.0 0.00 0.00 0.00 69 1015.0
20260903172024 68 262 2.0 12.0 0.00 0.00 0.00 68 1015.0
20260903171523 68 258 2.0 10.0 0.00 0.00 0.00 68 1014.9
20260903171022 68 263 1.0 9.0 0.00 0.00 0.00 68 1014.9
20260903170522 69 275 3.0 13.0 0.00 0.00 0.00 68 1014.9
20260903170023 69 257 4.0 12.0 0.00 0.00 0.00 68 1014.9
20260903165522 69 285 0.0 12.0 0.00 0.00 0.00 68 1014.8
20260903165022 70 231 6.0 14.0 0.00 0.00 0.00 67 1014.8
20260903164521 70 244 5.0 13.0 0.00 0.00 0.00 67 1014.8
20260903164021 70 255 3.0 13.0 0.00 0.00 0.00 66 1014.8
20260903163523 71 271 4.0 12.0 0.00 0.00 0.00 66 1014.8
20260903163020 71 236 3.0 14.0 0.00 0.00 0.00 66 1014.7
20260903162520 70 251 5.0 14.0 0.00 0.00 0.00 66 1014.8
20260903162020 70 214 5.0 14.0 0.00 0.00 0.00 65 1014.8
20260903161523 70 258 5.0 18.0 0.00 0.00 0.00 65 1014.8
20260903161022 70 238 8.0 18.0 0.00 0.00 0.00 65 1014.9
20260903160520 71 225 6.0 16.0 0.00 0.00 0.00 64 1014.9
20260903160019 71 245 3.0 17.0 0.00 0.00 0.00 64 1014.9
20260903155522 71 258 7.0 17.0 0.00 0.00 0.00 64 1014.9
20260903155018 71 289 4.0 15.0 0.00 0.00 0.00 64 1014.9
20260903154517 71 223 4.0 15.0 0.00 0.00 0.00 63 1014.9
20260903154017 71 236 4.0 22.0 0.00 0.00 0.00 62 1014.9
20260903153516 71 255 8.0 20.0 0.00 0.00 0.00 62 1015.0
20260903153016 71 301 8.0 18.0 0.00 0.00 0.00 63 1015.1
20260903152515 72 270 2.0 18.0 0.00 0.00 0.00 62 1015.1
20260903152015 72 230 5.0 20.0 0.00 0.00 0.00 61 1015.1
20260903151514 73 259 8.0 20.0 0.00 0.00 0.00 60 1015.1
20260903151014 73 278 8.0 16.0 0.00 0.00 0.00 59 1015.2
20260903150514 73 225 5.0 20.0 0.00 0.00 0.00 60 1015.3
20260903150022 72 268 6.0 21.0 0.00 0.00 0.00 60 1015.3
20260903145613 72 200 12.0 21.0 0.00 0.00 0.00 59 1015.2
20260903145014 72 219 11.0 20.0 0.00 0.00 0.00 59 1015.3
20260903144512 72 271 6.0 20.0 0.00 0.00 0.00 59 1015.4
20260903144011 72 259 6.0 20.0 0.00 0.00 0.00 60 1015.4
20260903143511 72 215 9.0 20.0 0.00 0.00 0.00 59 1015.4
20260903143013 72 211 8.0 17.0 0.00 0.00 0.00 59 1015.4
20260903142611 72 221 7.0 15.0 0.00 0.00 0.00 60 1015.3
20260903142010 72 213 5.0 17.0 0.00 0.00 0.00 60 1015.4
20260903141510 72 187 7.0 17.0 0.00 0.00 0.00 60 1015.4
20260903141010 72 211 7.0 17.0 0.00 0.00 0.00 59 1015.5
20260903140512 72 228 7.0 17.0 0.00 0.00 0.00 60 1015.4
20260903140009 73 219 9.0 15.0 0.00 0.00 0.00 59 1015.5
20260903135509 73 240 7.0 18.0 0.00 0.00 0.00 59 1015.5
20260903135009 73 257 11.0 18.0 0.00 0.00 0.00 58 1015.6
20260903134507 73 244 8.0 16.0 0.00 0.00 0.00 59 1015.6
20260903134011 73 204 6.0 19.0 0.00 0.00 0.00 59 1015.6
20260903133506 73 273 6.0 19.0 0.00 0.00 0.00 59 1015.7
20260903133005 73 255 10.0 19.0 0.00 0.00 0.00 58 1015.8
20260903132504 73 227 5.0 14.0 0.00 0.00 0.00 58 1015.8
20260903131505 73 203 6.0 19.0 0.00 0.00 0.00 58 1015.9
20260903131006 73 227 5.0 15.0 0.00 0.00 0.00 59 1015.9
20260903130506 73 265 6.0 14.0 0.00 0.00 0.00 58 1016.0
20260903130004 73 250 3.0 16.0 0.00 0.00 0.00 58 1016.0
20260903125503 72 217 4.0 17.0 0.00 0.00 0.00 58 1016.1
20260903125003 73 218 9.0 17.0 0.00 0.00 0.00 57 1016.1
20260903124501 73 251 3.0 13.0 0.00 0.00 0.00 60 1016.1
20260903124002 72 217 4.0 15.0 0.00 0.00 0.00 60 1016.1
20260903123502 73 253 7.0 15.0 0.00 0.00 0.00 59 1016.2
20260903123102 72 269 3.0 15.0 0.00 0.00 0.00 59 1016.2
20260903122602 72 245 5.0 15.0 0.00 0.00 0.00 59 1016.2
20260903122100 72 227 7.0 16.0 0.00 0.00 0.00 60 1016.3
20260903121602 72 227 9.0 18.0 0.00 0.00 0.00 59 1016.3
20260903121059 73 190 6.0 16.0 0.00 0.00 0.00 59 1016.3
20260903120602 73 279 7.0 20.0 0.00 0.00 0.00 59 1016.4
20260903120058 73 219 6.0 14.0 0.00 0.00 0.00 59 1016.4
20260903115557 73 270 4.0 15.0 0.00 0.00 0.00 59 1016.5
20260903115058 74 219 9.0 17.0 0.00 0.00 0.00 58 1016.5
20260903114556 73 211 7.0 17.0 0.00 0.00 0.00 57 1016.6
20260903114055 73 281 4.0 15.0 0.00 0.00 0.00 58 1016.6
20260903113554 74 213 6.0 15.0 0.00 0.00 0.00 58 1016.6
20260903113056 74 240 7.0 15.0 0.00 0.00 0.00 57 1016.7
20260903112554 73 244 6.0 20.0 0.00 0.00 0.00 57 1016.7
20260903112053 74 300 8.0 20.0 0.00 0.00 0.00 57 1016.8
20260903111621 74 207 7.0 20.0 0.00 0.00 0.00 56 1016.8
20260903111052 73 184 13.0 21.0 0.00 0.00 0.00 57 1016.9
20260903110551 73 275 6.0 21.0 0.00 0.00 0.00 56 1016.9
20260903110107 73 236 11.0 18.0 0.00 0.00 0.00 57 1017.0
20260903105550 73 271 8.0 16.0 0.00 0.00 0.00 57 1017.0
20260903105049 74 290 8.0 18.0 0.00 0.00 0.00 58 1017.0
20260903104607 72 268 9.0 18.0 0.00 0.00 0.00 60 1017.1
20260903104047 73 260 4.0 17.0 0.00 0.00 0.00 59 1017.1
20260903103547 72 258 8.0 15.0 0.00 0.00 0.00 59 1017.1
20260903103047 72 267 7.0 15.0 0.00 0.00 0.00 59 1017.2
20260903102545 73 225 5.0 21.0 0.00 0.00 0.00 58 1017.3
20260903102047 73 281 10.0 21.0 0.00 0.00 0.00 58 1017.3
20260903101648 73 205 5.0 18.0 0.00 0.00 0.00 58 1017.2
20260903101049 72 247 9.0 14.0 0.00 0.00 0.00 58 1017.3
20260903100547 73 248 6.0 16.0 0.00 0.00 0.00 58 1017.3
20260903100044 72 262 10.0 16.0 0.00 0.00 0.00 59 1017.4
20260903095542 71 227 6.0 13.0 0.00 0.00 0.00 61 1017.4
20260903095041 71 215 9.0 14.0 0.00 0.00 0.00 61 1017.5
20260903094541 71 292 7.0 14.0 0.00 0.00 0.00 62 1017.5
20260903094043 71 281 5.0 15.0 0.00 0.00 0.00 63 1017.5
20260903093542 71 268 8.0 15.0 0.00 0.00 0.00 61 1017.5
20260903093043 71 236 8.0 15.0 0.00 0.00 0.00 61 1017.7
20260903092537 71 242 3.0 12.0 0.00 0.00 0.00 63 1017.7
20260903092038 71 316 7.0 18.0 0.00 0.00 0.00 61 1017.7
20260903091536 71 200 9.0 18.0 0.00 0.00 0.00 62 1017.7
20260903091035 71 217 7.0 12.0 0.00 0.00 0.00 62 1017.8
20260903090538 71 215 4.0 19.0 0.00 0.00 0.00 63 1017.8
20260903090034 72 207 5.0 13.0 0.00 0.00 0.00 63 1017.9
20260903085532 70 258 6.0 13.0 0.00 0.00 0.00 63 1017.9
20260903085031 71 224 4.0 15.0 0.00 0.00 0.00 65 1017.9
20260903084534 70 306 10.0 18.0 0.00 0.00 0.00 65 1018.0
20260903084028 70 273 9.0 18.0 0.00 0.00 0.00 65 1018.1
20260903083528 70 328 7.0 16.0 0.00 0.00 0.00 65 1018.1
20260903083027 71 331 5.0 16.0 0.00 0.00 0.00 65 1018.1
20260903082525 70 281 4.0 16.0 0.00 0.00 0.00 67 1018.1
20260903082024 69 296 6.0 13.0 0.00 0.00 0.00 67 1018.1
20260903081526 68 329 7.0 16.0 0.00 0.00 0.00 67 1018.1
20260903081122 68 250 6.0 16.0 0.00 0.00 0.00 68 1018.1
20260903080524 68 298 6.0 13.0 0.00 0.00 0.00 68 1018.1
20260903080020 68 231 6.0 14.0 0.00 0.00 0.00 71 1018.1
20260903075520 68 307 2.0 14.0 0.00 0.00 0.00 69 1018.0
20260903075021 69 300 7.0 10.0 0.00 0.00 0.00 68 1018.1
20260903074517 68 244 2.0 11.0 0.00 0.00 0.00 71 1018.1
20260903074016 67 239 4.0 13.0 0.00 0.00 0.00 71 1018.0
20260903073519 67 328 8.0 13.0 0.00 0.00 0.00 71 1018.0
20260903073031 67 244 6.0 15.0 0.00 0.00 0.00 72 1018.1
20260903072511 67 280 7.0 12.0 0.00 0.00 0.00 72 1018.0
20260903072011 66 319 3.0 11.0 0.00 0.00 0.00 75 1017.9
20260903071510 66 251 3.0 11.0 0.00 0.00 0.00 75 1017.9
20260903071009 65 211 4.0 9.0 0.00 0.00 0.00 76 1017.9
20260903070506 65 246 3.0 9.0 0.00 0.00 0.00 77 1017.9
20260903070006 64 217 1.0 9.0 0.00 0.00 0.00 80 1017.9
20260903065504 63 251 4.0 9.0 0.00 0.00 0.00 80 1017.8
20260903065002 63 360 6.0 9.0 0.00 0.00 0.00 80 1017.9
20260903064502 62 211 2.0 7.0 0.00 0.00 0.00 81 1017.9
20260903064059 62 209 3.0 7.0 0.00 0.00 0.00 81 1017.9
20260903063601 62 205 3.0 7.0 0.00 0.00 0.00 82 1017.8
20260903063057 61 223 2.0 7.0 0.00 0.00 0.00 83 1017.9
20260903062555 61 222 2.0 6.0 0.00 0.00 0.00 83 1017.9
20260903062054 61 227 0.0 0.0 0.00 0.00 0.00 84 1017.9
20260903061602 60 247 0.0 0.0 0.00 0.00 0.00 86 1017.9